Погода в Аянгатах

Россия / Республика Тыва     50°59′36″N   90°50′39″E
темп.,
°C
ветер,
м/с
пор.,
м/с
влажн.,
%
обл.,
%
осадки,
мм/ч
давл.,
гПа
погр.,
м
15 апреля, чт
чт1501:000ююз344882 0.0 102464
04:00−1ююз335510 0.0 102532
07:00−1ююз33545 0.0 102554
10:00+5зсз34355 0.0 1023727
13:00+9з35295 0.0 10211578
16:00+11з2325100 0.0 10191696
19:00+10в1232100 0.0 101949
22:00+4ю33528 0.0 102233
16 апреля, пт
пт1601:00+2ю325728 0.0 102325
04:00+1ю33586 0.0 102325
07:00+2ю22525 0.0 102332
10:00+7с21375 0.0 1020659
13:00+11ссз33272 0.0 10171230
16:00+13ссз23230 0.0 10141136
19:00+13з22250 0.0 101347
22:00+7ю44360 0.0 101543
17 апреля, сб
сб1701:00+6ю33350 0.0 101523
04:00+4ю33390 0.0 101422
07:00+5ю22421 0.0 101424
10:00+9ссз2129100 0.0 1012551
13:00+13сз3622100 0.0 10091332
16:00+14зсз8815100 0.0 10072995
19:00+12з4724100 0.0 1006349
22:00+7ююз333725 0.0 100838
18 апреля, вс
вс1801:00+6ююз224099 0.0 100928
04:00+4ю115162 0.0 101011
07:00+4ю225248 0.0 101244
10:00+8с345238 0.0 10111055
13:00+11с483377 0.0 10092145
16:00+13з91220100 0.0 10073424
19:00+12з692699 0.0 10082264
22:00+7ююз334182 0.1 101137
19 апреля, пн
пн1901:00+5ю224870 0.1 101121
04:00+4ю2249100 0.0 101014
07:00+4ю124487 0.0 100920
10:00+9ссз233199 0.0 1006730
13:00+15з410216 0.0 10032510
16:00+16зюз812197 0.0 10002965
19:00+14зюз711274 0.0 10011974
22:00+9ю5103384 0.0 1001203